Weather Service Report


809 
ASUS44 KEWX 020411
RWRTX 
SOUTH TEXAS REGIONAL WEATHER ROUNDUP
NATIONAL WEATHER SERVICE AUSTIN/SAN ANTONIO TX
1100 PM CDT FRI JUL 01 2016

NOTE: "FAIR" INDICATED FEW OR NO CLOUDS BELOW 12,000 FEET WITH NO
SIGNIFICANT WEATHER AND/OR OBSTRUCTIONS TO VISIBILITY.

* - THESE STATIONS ARE NOT NWS OR FAA STATIONS...AND ARE NOT SUBJECT
    TO NWS AND FAA QUALITY CONTROL.
 
TXZ171-172-183>190-020500-
TEXAS HILL COUNTRY AND EDWARDS PLATEAU
  
CITY           SKY/WX    TMP DP  RH WIND       PRES   REMARKS
JUNCTION       CLEAR     83  63  50 E3        30.04R                  
*LLANO         CLEAR     79  68  69 CALM      30.05R                  
BURNET         CLEAR     82  67  60 SE6       30.05R                  
*HORSESHOE BAY CLEAR     82  70  66 S6        30.02R                  
*KERRVILLE     CLEAR     79  68  69 E5        30.04R                  
*FREDERICKSBRG CLEAR     77  64  64 CALM      30.05R                  
*ROCKSPRINGS   CLEAR     81  64  57 SE7       30.09R                  
*BOERNE STAGE  PTCLDY    81  70  69 SE9G16    30.05R                  
*CASTROVILLE   CLEAR     84  69  60 SE8       30.02R                  
HONDO          CLEAR     84  71  65 SE10      30.01R                  
*UVALDE        CLEAR     83  70  64 E9        29.98R                  
DEL RIO        MOCLDY    89  65  44 E14G21    29.94R HX  91           
LAUGHLIN AFB   PTCLDY    89  66  46 E16       29.95R HX  91           
CARRIZO SPRGS  CLEAR     88  72  58 SE12G21   29.94R HX  94           
*EAGLE PASS    CLEAR     90  64  43 E12       29.94R HX  91           
$$

TXZ173-191>194-202-209-217>225-228-020500-
CENTRAL AND SOUTH CENTRAL TEXAS
  
CITY           SKY/WX    TMP DP  RH WIND       PRES   REMARKS
GEORGETOWN     CLEAR     84  72  65 SE6       30.02R                  
AUSTIN/BERGSTM CLEAR     84  74  71 SE9       30.00R HX  91           
AUSTIN/MABRY   CLEAR     85  73  67 SE9       30.02R HX  91           
*AUSTIN/EXEC     N/A     82  73  74 SE6       30.02R                  
*LAGO VISTA    CLEAR     83  71  65 SE7       30.04R                  
SAN MARCOS     CLEAR     81  73  78 SE8       30.02R                  
NEW BRAUNFELS  CLEAR     82  73  74 S12G20    30.00R                  
RANDOLPH AFB   CLEAR     81  74  79 SE10      30.02R                  
PT SAN ANTONIO CLEAR     84  71  65 SE15      30.00R                  
SAN ANTONIO    PTCLDY    83  72  69 SE15      30.02R                  
STINSON FIELD  CLEAR     85  70  60 SE13      29.99R                  
*PLEASANTON    CLEAR     83  71  66 SE8       29.99R                  
*LA GRANGE       N/A     82  76  80 S5        29.99R HX  90           
*GIDDINGS      CLEAR     80  73  79 SE3       30.05R                  
*GONZALES      CLEAR     83  74  76 SE8       30.01R                  
$$

TXZ163>164-176>182-195>201-210>213-226-227-235-020500-
SOUTHEAST TEXAS
  
CITY           SKY/WX    TMP DP  RH WIND       PRES   REMARKS
COLLEGE STN    CLEAR     83  75  77 SE7       30.01R HX  90           
*BRYAN         CLEAR     80  77  92 SE3       30.03R                  
*CALDWELL      CLEAR     81  75  83 CALM      30.05R                  
*CROCKETT      CLEAR     81  75  83 MISG      30.05R                  
*BRENHAM       CLEAR     83  75  78 SE3       30.02R HX  90           
HUNTSVILLE     CLEAR     85  74  69 S7        30.02R HX  92           
CONROE         CLEAR     80  75  84 E3        30.03R                  
HOUSTON BUSH   PTCLDY    83  74  74 S6        30.02R                  
HOUSTON HOBBY  PTCLDY    82  75  79 CALM      30.01R                  
*HOUSTON SW AP CLEAR     78  75  90 CALM      30.02R                  
PEARLAND       CLEAR     84  76  76 SE3       30.02R HX  93           
HOUSTON HOOKS  CLEAR     83  74  74 SE3       30.02R                  
ELLINGTON FLD  PTCLDY    84  73  70 CALM      30.02R HX  91           
SUGAR LAND     CLEAR     80  74  81 S5        30.01R                  
*HOUSTON EXEC    N/A     81  75  83 S6        30.03R                  
*CLEVELAND MUN CLEAR     78  77  96 CALM      30.03R                  
*WHARTON       CLEAR     78  74  87 CALM      30.02R                  
*COLUMBUS      FAIR      81  76  86 S6        30.01R                  
*EAGLE LAKE    CLEAR     80  77  89 S5        30.01R                  
$$

TXZ214>216-236>238-020500-
THE UPPER TEXAS COAST
  
CITY           SKY/WX    TMP DP  RH WIND       PRES   REMARKS
*ORANGE        CLEAR     77  74  90 CALM      30.04R                  
PORT ARTHUR    CLEAR     79  75  87 S6        30.02R                  
GALVESTON      CLEAR     83  77  82 S7        30.03R HX  92           
ANGLETON       CLEAR     79  76  90 CALM      30.01R                  
*BAY CITY      CLEAR     79  76  90 CALM      30.01R                  
PALACIOS       CLEAR     83  76  79 SE8       30.00R HX  91           
$$

TXZ229>234-239>247-020500-
TEXAS COASTAL BEND AND RIO GRANDE PLAINS
  
CITY           SKY/WX    TMP DP  RH WIND       PRES   REMARKS
VICTORIA       CLEAR     79  75  87 SE7       30.00R                  
*BEEVILLE      CLEAR     81  78  90 SE6       29.99R                  
ROCKPORT       PTCLDY    85  75  72 S13       29.98S HX  93           
*PORT ARANSAS  MOCLDY    84  78  81 S12G17    29.99R HX  94           
*PORT LAVACA   PTCLDY    79  77  91 S3        30.00R                  
*INGLESIDE     PTCLDY    85  77  77 S10G16    29.99R HX  95           
CORPUS CHRISTI PTCLDY    83  77  82 SE10      29.98R HX  92           
CORPUS NAS     NOT AVBL                                               
*ROBSTOWN      CLEAR     82  78  88 SE9       29.99R HX  91           
ALICE          CLEAR     81  76  84 SE10      29.98R                  
KINGSVILLE NAS CLEAR     81  79  94 SE8       29.98R HX  90           
COTULLA        CLEAR     87  71  58 SE17      29.97R HX  93           
*FAITH RANCH     N/A    N/A N/A N/A MISG        N/A                   
LAREDO         CLEAR     89  69  51 SE17      29.95R HX  93           
$$

TXZ248>255-020500-
DEEP SOUTH TEXAS
  
CITY           SKY/WX    TMP DP  RH WIND       PRES   REMARKS
BROWNSVILLE    CLEAR     82  77  84 SE14      30.00R HX  90           
PORT ISABEL    CLEAR     82  78  88 SE12      29.99R HX  91           
*SOUTH PADRE     N/A     82  77  83 S14       30.00R HX  91           
HARLINGEN      CLEAR     82  76  81 SE12      29.98R                  
*HEBBRONVILLE  CLEAR     85  70  61 SE13      30.00R                  
MCALLEN        CLEAR     84  74  71 SE15      29.99R HX  91           
*WESLACO       CLEAR     80  38  22 SE9       29.98R                  
FALFURRIAS     CLEAR     82  74  76 SE7       29.97R                  
EDINBURG       CLEAR     83  73  70 SE10      29.98R                  
*ZAPATA        CLEAR     87  68  52 SE13G21   29.95R HX  90           
$$

TXZ213>215-236>238-242>244-246-247-251-254-255-020500-
CMAN STATIONS
  
STATION/POSITION TIME  TEMP    WIND        PRES    WAVE
                       AIR SEA DIR/SP/G            HT/PER
                 (UTC) (F)     (DEG/KT/KT) (MB)    (FT/S)
SABINE PASS      0300   84                 1017.4
SEA RIM ST PARK  0300   85     170/  8/ 10 1016.5
NORTH JETTY/GLS  0300   86                   N/A
EAGLE POINT      0300   85                 1016.0
MORGANS POINT    0300   86                 1016.1
MISSION/ARANSAS  0300   86                 1015.0
PORT ARANSAS     0300   85 88  140/ 17/ 19 1015.0
MALAQUITE BEACH  0300   85                 1015.0
BAFFIN BAY       0300   84                 1014.9
PORT ISABEL      0300   83                 1015.2
$$

GMZ080-GMZ150>470-020500-
OFFSHORE BUOY REPORTS
  
STATION/POSITION TIME  TEMP    WIND        PRES    WAVE
                       AIR SEA DIR/SP/G            HT/PER
                 (UTC) (F)     (DEG/KT/KT) (MB)    (FT/S)
20 E GALVESTON   0350   86 89  160/  8/ 10 1016.3    1/ 3
90 E PT ARANSAS  0350   85 87  150/ 12/ 12 1015.6    2/ 6
35 NE PT MANSFLD 0350   85 86  160/ 17/ 19 1014.9    3/ 6
200 E PT ISABEL  0350   85 87  140/  4/  6 1016.5    1/ 5
$$
  

Return to Home page


Western Regional Climate Center, wrcc@dri.edu